Flag for Norway Weather past 2 weeks in Lillesand, Norway

Now
57 °F

Cool.


Feels Like: 57 °F
Forecast: 58 / 70 °F
Wind: 1 mph from Northwest

Location: Kristiansand / Kjevik

Current Time: Jul 31, 2014 at 5:44:29 AM

Latest Report: Jul 31, 2014 at 4:00 AM


Visibility: N/A

Pressure: 29.74 "Hg

Humidity: 89%

Dew point: 54 °F

Location of LillesandLocation

Historic Weather in Lillesand — Graph

°F

Lillesand temperature yesterday

Maximum temperature yesterday: 73 °F (at 1:00 PM)
Minimum temperature yesterday: 61 °F (at 5:00 AM)
Average temperature yesterday: 67 °F

Past Weeks' High & Low Weather Summary

 TemperatureHumidityPressure
High84 °F (Jul 23, 2:00 PM)99% (Jul 28, 4:00 AM)30.31 "Hg (Jul 28, 4:00 AM)
Low50 °F (Jul 19, 5:00 AM)32% (Jul 24, 3:00 PM)29.71 "Hg (Jul 30, 1:00 PM)
Average69 °F69%30.05 "Hg
* Reported Jul 16 4:00 AM — Jul 31 4:00 AM, Lillesand, Weather by CustomWeather, © 2014

Note: Actual official high and low records may vary slightly from our data, if they occured in-between our weather recording intervals... More about our weather records

Advertising

Lillesand weather history for previous 24 hours

 ConditionsComfort  
Time TempWeatherWind HumidityBarometerVisibility
4:00 AM
Jul 31
57 °FCool.1 mph89%29.74 "HgN/A
3:00 AM58 °FCool.3 mph86%29.74 "HgN/A
2:00 AM59 °FCool.1 mph86%29.74 "HgN/A
1:00 AM60 °FCool.3 mph83%29.75 "HgN/A
12:00 AM61 °FCool.3 mph82%29.75 "HgN/A
11:00 PM
Jul 30
62 °FCool.3 mph80%29.74 "HgN/A
10:00 PM63 °FMild.5 mph75%29.75 "HgN/A
9:00 PM65 °FMild.6 mph67%29.74 "HgN/A
8:00 PM68 °FMild.8 mph60%29.72 "HgN/A
7:00 PM71 °FMild.7 mph50%29.72 "HgN/A
6:00 PM71 °FMild.6 mph50%29.72 "HgN/A
5:00 PM72 °FMild.8 mph50%29.72 "HgN/A
4:00 PM73 °FMild.7 mph44%29.71 "HgN/A
3:00 PM73 °FMild.7 mph46%29.72 "HgN/A
2:00 PM71 °FMild.9 mph46%29.71 "HgN/A
1:00 PM73 °FMild.8 mph45%29.71 "HgN/A
12:00 PM73 °FMild.6 mph45%29.71 "HgN/A
11:00 AM71 °FMild.5 mph52%29.72 "HgN/A
10:00 AM70 °FMild.5 mph54%29.72 "HgN/A
9:00 AM66 °FMild.5 mph71%29.72 "HgN/A
8:00 AM65 °FMild.2 mph79%29.72 "HgN/A
7:00 AM62 °FMild.3 mph85%29.73 "HgN/A
6:00 AM62 °FCool.3 mph86%29.74 "HgN/A
5:00 AM61 °FCool.5 mph85%29.73 "HgN/A
Weather by CustomWeather, © 2014

See weather overviewHow to use our weather pages